Weather History for Ann Arbor, MI

Change the Weather History Date:

Tuesday, October 15, 2013

  Actual Average Record
Temperature  
Mean Temperature 49 °F -  
Max Temperature 64 °F 58 °F 71 °F (2007)
Min Temperature 35 °F 35 °F 24 °F (2006)
Degree Days  
Heating Degree Days 16    
Moisture  
Dew Point 49 °F    
Average Humidity 90    
Maximum Humidity 100    
Minimum Humidity 77    
Precipitation  
Precipitation 0.04 in - - ()
Sea Level Pressure  
Sea Level Pressure 30.05 in    
Wind  
Wind Speed 4 mph (SE)    
Max Wind Speed 10 mph    
Max Gust Speed -    
Visibility 6 miles    
Events Fog , Rain    
Averages and records for this station are not official NWS values.
T = Trace of Precipitation, MM = Missing Value Source: NWS Daily Summary

Daily Weather History Graph

Daily Weather History Graph

Search for Another Location

Airport:

Trip Planner

Search our weather history database for the weather conditions in past years. The results will help you decide how hot, cold, wet, or windy it might be!

Date:

Astronomy

Oct. 15, 2013 Rise Set
Actual Time 7:47 AM EDT 6:52 PM EDT
Civil Twilight 7:19 AM EDT 7:20 PM EDT
Nautical Twilight 6:47 AM EDT 7:53 PM EDT
Astronomical Twilight 6:14 AM EDT 8:25 PM EDT
Moon 5:00 PM EDT (10/15) 4:05 AM EDT (10/15)
Length of Visible Light 12h 01m
Length of Day
11h 04m
Waxing Gibbous, 87% of the Moon is Illuminated
Oct 15
Waxing Gibbous
Oct 18
Full
Oct 26
Last Quarter
Nov 3
New
Nov 10
First Quarter

Hourly Weather History & Observations

Time (EDT) Temp. Windchill Dew Point Humidity Pressure Visibility Wind Dir Wind Speed Gust Speed Precip Events Conditions
12:53 AM 44.1 °F 42.5 °F 42.1 °F 93% 30.26 in 10.0 mi ENE 3.5 mph - N/A   Clear
1:53 AM 45.0 °F 43.5 °F 43.0 °F 93% 30.23 in 10.0 mi NE 3.5 mph - N/A   Clear
2:53 AM 39.9 °F 37.8 °F 39.9 °F 100% 30.22 in 6.0 mi NE 3.5 mph - N/A   Clear
3:50 AM 37.4 °F 34.9 °F 35.6 °F 93% 30.20 in 1.8 mi NE 3.5 mph - N/A   Clear
3:53 AM 37.0 °F 34.5 °F 36.0 °F 96% 30.20 in 2.0 mi NE 3.5 mph - N/A   Clear
4:02 AM 39.2 °F 37.0 °F 37.4 °F 93% 30.19 in 10.0 mi NE 3.5 mph - N/A   Clear
4:53 AM 39.0 °F 36.8 °F 37.9 °F 96% 30.19 in 9.0 mi NE 3.5 mph - N/A   Clear
5:51 AM 37.4 °F - 35.6 °F 93% 30.17 in 1.8 mi Calm Calm - N/A   Partly Cloudy
5:53 AM 36.0 °F - 36.0 °F 100% 30.18 in 1.2 mi Calm Calm - N/A   Scattered Clouds
5:56 AM 35.6 °F - 35.6 °F 100% 30.17 in 0.8 mi Calm Calm - N/A   Mist
6:16 AM 39.2 °F - 37.4 °F 93% 30.16 in 1.5 mi Calm Calm - N/A   Mostly Cloudy
6:18 AM 37.4 °F - 37.4 °F 100% 30.16 in 3.0 mi Calm Calm - N/A   Scattered Clouds
6:53 AM 37.9 °F - 37.0 °F 97% 30.16 in 2.0 mi Calm Calm - N/A   Clear
6:56 AM 37.4 °F - 37.4 °F 100% 30.15 in 1.2 mi Calm Calm - N/A   Clear
7:05 AM 37.4 °F - 37.4 °F 100% 30.15 in 0.5 mi Calm Calm - N/A Fog Fog
7:14 AM 39.2 °F - 37.4 °F 93% 30.15 in 1.5 mi Calm Calm - N/A   Clear
7:16 AM 39.2 °F - 37.4 °F 93% 30.15 in 3.0 mi Calm Calm - N/A   Clear
7:53 AM 37.0 °F - 37.0 °F 100% 30.15 in 6.0 mi Calm Calm - N/A   Clear
8:53 AM 44.1 °F - 43.0 °F 96% 30.15 in 7.0 mi Calm Calm - N/A   Mostly Cloudy
9:16 AM 48.2 °F - 46.4 °F 93% 30.13 in 10.0 mi Calm Calm - N/A   Overcast
9:48 AM 51.8 °F - 50.0 °F 94% 30.12 in 10.0 mi East 3.5 mph - N/A   Mostly Cloudy
9:53 AM 54.0 °F - 50.0 °F 86% 30.13 in 10.0 mi East 4.6 mph - N/A   Mostly Cloudy
10:53 AM 57.0 °F - 51.1 °F 81% 30.11 in 10.0 mi ESE 4.6 mph - N/A   Mostly Cloudy
11:05 AM 57.2 °F - 51.8 °F 82% 30.09 in 10.0 mi SE 5.8 mph - N/A   Overcast
11:53 AM 57.9 °F - 53.1 °F 84% 30.08 in 10.0 mi SSE 10.4 mph - N/A   Overcast
12:04 PM 60.8 °F - 53.6 °F 77% 30.07 in 10.0 mi SSE 8.1 mph - N/A   Mostly Cloudy
12:37 PM 60.8 °F - 55.4 °F 82% 30.06 in 10.0 mi South 8.1 mph - N/A   Overcast
12:53 PM 61.0 °F - 55.0 °F 81% 30.06 in 10.0 mi Variable 6.9 mph - N/A   Overcast
1:20 PM 62.6 °F - 55.4 °F 77% 30.04 in 10.0 mi SSE 4.6 mph - N/A   Overcast
1:53 PM 63.0 °F - 55.9 °F 78% 30.03 in 10.0 mi SSE 5.8 mph - N/A   Overcast
2:53 PM 63.0 °F - 55.9 °F 78% 30.00 in 10.0 mi SE 8.1 mph - N/A   Overcast
3:50 PM 62.6 °F - 55.4 °F 77% 29.97 in 10.0 mi SE 10.4 mph - N/A   Mostly Cloudy
3:53 PM 62.1 °F - 55.9 °F 80% 29.97 in 10.0 mi SSE 9.2 mph - N/A   Mostly Cloudy
4:32 PM 60.8 °F - 55.4 °F 82% 29.95 in 9.0 mi SSE 8.1 mph - N/A   Mostly Cloudy
4:53 PM 61.0 °F - 55.9 °F 83% 29.95 in 8.0 mi SE 9.2 mph - N/A   Mostly Cloudy
5:53 PM 60.1 °F - 55.9 °F 86% 29.94 in 6.0 mi SSE 6.9 mph - N/A   Overcast
6:11 PM 60.8 °F - 57.2 °F 88% 29.92 in 6.0 mi SSE 4.6 mph - N/A   Overcast
6:53 PM 61.0 °F - 57.0 °F 87% 29.92 in 6.0 mi South 4.6 mph - N/A   Overcast
7:53 PM 61.0 °F - 57.9 °F 90% 29.91 in 7.0 mi SSE 6.9 mph - N/A   Overcast
8:00 PM 60.8 °F - 57.2 °F 88% 29.90 in 7.0 mi SSE 5.8 mph - N/A   Overcast
8:53 PM 61.0 °F - 57.9 °F 90% 29.88 in 7.0 mi South 6.9 mph - N/A   Overcast
9:53 PM 61.0 °F - 57.9 °F 90% 29.87 in 5.0 mi South 5.8 mph - 0.00 in Rain Light Rain
10:06 PM 60.8 °F - 59.0 °F 94% 29.86 in 5.0 mi South 5.8 mph - 0.00 in Rain Light Rain
10:27 PM 62.6 °F - 59.0 °F 88% 29.86 in 5.0 mi South 8.1 mph - 0.01 in   Overcast
10:46 PM 62.6 °F - 60.8 °F 94% 29.85 in 3.0 mi South 10.4 mph - 0.03 in Rain Light Rain
10:53 PM 62.1 °F - 60.1 °F 93% 29.85 in 4.0 mi SSW 10.4 mph - 0.03 in Rain Light Rain
11:00 PM 62.6 °F - 60.8 °F 94% 29.85 in 3.0 mi SSW 8.1 mph - 0.01 in Rain Light Rain
11:53 PM 62.1 °F - 60.1 °F 93% 29.85 in 5.0 mi SW 9.2 mph - 0.01 in   Overcast